Charlotte, NC

1:23 AM EDT on August 20, 2017 (GMT -0400)
Charlotte-Douglas International

Weather History for KCLT - February, 2013

Change the Weather History Date:

Tuesday, February 5, 2013

  Actual Average Record
Temperature  
Mean Temperature 51 °F 42 °F  
Max Temperature 66 °F 53 °F 78 °F (1890)
Min Temperature 36 °F 31 °F 6 °F (1886)
Degree Days  
Heating Degree Days 14 23  
Month to date heating degree days 122 116  
Since 1 July heating degree days 1911 2223  
Cooling Degree Days 0 0  
Month to date cooling degree days 0 0  
Year to date cooling degree days 0 0  
Growing Degree Days 1 (Base 50)    
Moisture  
Dew Point 33 °F    
Average Humidity 57    
Maximum Humidity 77    
Minimum Humidity 36    
Precipitation  
Precipitation 0.00 in 0.11 in 2.00 in (2010)
Month to date precipitation T 0.56  
Year to date precipitation 4.29 3.97  
Snow  
Snow 0.00 in 0.10 in 3.50 in (1929)
Month to date snowfall 0.0 0.3  
Since 1 July snowfall T 2.8  
Snow Depth 0.00 in    
Sea Level Pressure  
Sea Level Pressure 29.95 in    
Wind  
Wind Speed 6 mph (SW)    
Max Wind Speed 16 mph    
Max Gust Speed 21 mph    
Visibility 10 miles    
Events      
T = Trace of Precipitation, MM = Missing Value Source: NWS Daily Summary

Daily Weather History Graph

Daily Weather History Graph

Search for Another Location

Airport or City:

Trip Planner

Search our weather history database for the weather conditions in past years. The results will help you decide how hot, cold, wet, or windy it might be!

Date:

Astronomy

Feb. 05, 2013 Rise Set
Actual Time 7:19 AM EST 5:56 PM EST
Civil Twilight 6:53 AM EST 6:22 PM EST
Nautical Twilight 6:22 AM EST 6:53 PM EST
Astronomical Twilight 5:53 AM EST 7:22 PM EST
Moon 2:55 AM EST (2/5) 1:16 PM EST (2/5)
Length of Visible Light 11h 29m
Length of Day
10h 37m
Waning Crescent, 27% of the Moon is Illuminated
Feb 5
Waning Crescent
Feb 10
New
Feb 17
First Quarter
Feb 25
Full
Mar 4
Last Quarter

Hourly Weather History & Observations

Time (EST) Temp. Windchill Dew Point Humidity Pressure Visibility Wind Dir Wind Speed Gust Speed Precip Events Conditions
12:52 AM 43.0 °F 38.8 °F 26.1 °F 51% 29.99 in 10.0 mi SSW 6.9 mph - N/A   Overcast
1:52 AM 43.0 °F 38.2 °F 27.0 °F 53% 29.97 in 10.0 mi SW 8.1 mph - N/A   Overcast
2:52 AM 42.1 °F 37.1 °F 28.0 °F 58% 29.96 in 10.0 mi SSW 8.1 mph - N/A   Overcast
3:52 AM 39.9 °F 35.8 °F 28.0 °F 63% 29.95 in 10.0 mi SW 5.8 mph - N/A   Scattered Clouds
4:52 AM 39.9 °F 36.7 °F 28.0 °F 63% 29.95 in 10.0 mi WSW 4.6 mph - N/A   Overcast
5:52 AM 37.9 °F 34.4 °F 28.0 °F 68% 29.97 in 10.0 mi SW 4.6 mph - N/A   Mostly Cloudy
6:52 AM 36.0 °F 32.1 °F 28.9 °F 76% 29.96 in 10.0 mi South 4.6 mph - N/A   Mostly Cloudy
7:52 AM 39.0 °F 35.7 °F 28.9 °F 67% 29.98 in 10.0 mi SW 4.6 mph - N/A   Mostly Cloudy
8:52 AM 43.0 °F 38.2 °F 30.0 °F 60% 30.00 in 10.0 mi SW 8.1 mph - N/A   Overcast
9:52 AM 46.0 °F 42.5 °F 28.9 °F 51% 29.99 in 10.0 mi SW 6.9 mph - N/A   Overcast
10:52 AM 51.1 °F - 30.0 °F 44% 29.98 in 10.0 mi SW 6.9 mph - N/A   Mostly Cloudy
11:52 AM 55.0 °F - 30.0 °F 38% 29.96 in 10.0 mi Variable 5.8 mph - N/A   Partly Cloudy
12:52 PM 61.0 °F - 35.1 °F 38% 29.94 in 10.0 mi SW 10.4 mph 16.1 mph N/A   Scattered Clouds
1:52 PM 63.0 °F - 37.0 °F 38% 29.91 in 10.0 mi WSW 8.1 mph 18.4 mph N/A   Scattered Clouds
2:52 PM 63.0 °F - 37.0 °F 38% 29.88 in 10.0 mi WNW 10.4 mph - N/A   Scattered Clouds
3:52 PM 64.0 °F - 37.0 °F 37% 29.89 in 10.0 mi WSW 12.7 mph 20.7 mph N/A   Scattered Clouds
4:52 PM 62.1 °F - 35.1 °F 37% 29.90 in 10.0 mi West 8.1 mph - N/A   Scattered Clouds
5:52 PM 59.0 °F - 39.0 °F 48% 29.91 in 10.0 mi WSW 11.5 mph - N/A   Scattered Clouds
6:52 PM 55.9 °F - 39.9 °F 55% 29.93 in 10.0 mi SW 6.9 mph - N/A   Scattered Clouds
7:52 PM 54.0 °F - 39.0 °F 57% 29.95 in 10.0 mi SW 4.6 mph - N/A   Partly Cloudy
8:52 PM 53.1 °F - 39.0 °F 59% 29.96 in 10.0 mi Calm Calm - N/A   Clear
9:52 PM 51.1 °F - 41.0 °F 68% 29.98 in 10.0 mi West 3.5 mph - N/A   Clear
10:52 PM 48.9 °F - 41.0 °F 74% 29.99 in 10.0 mi Calm Calm - N/A   Clear
11:52 PM 43.0 °F - 37.9 °F 82% 29.99 in 10.0 mi Calm Calm - N/A   Clear